Simultaneous Nadir Overpasses (SNOs) Predictions

Prediction of SNOs between GOES-16 and NOAA-19 Satellite Orbit:

Table of predicted SNOs for the next 14.0 days since TLE Epoch: 8/24/2024
Index Date Time (GOES-16) GOES-16 Lat,Lon NOAA-19 Lat,Lon Distance(km) Time Diff (sec)
1 08/24/2024 14:18:35 -0.03, -75.21 -0.39, -73.63 180.25 80
2 08/27/2024 02:35:23 0.03, -75.21 -0.68, -78.26 348.71 80
3 08/28/2024 02:23:02 0.03, -75.22 -0.00, -75.26 5.90 80
4 08/29/2024 02:13:21 0.03, -75.22 0.74, -72.27 338.25 80
5 08/31/2024 14:29:49 -0.03, -75.26 0.33, -76.82 178.27 80
6 09/01/2024 14:20:07 -0.03, -75.27 -0.36, -73.81 166.15 80
7 09/04/2024 02:39:34 0.03, -75.31 -0.69, -78.45 358.41 80
8 09/05/2024 02:27:13 0.03, -75.33 0.01, -75.45 13.24 80
9 09/06/2024 02:12:11 0.03, -75.35 0.72, -72.45 332.12 80
